Location: Hilina Pali Trail
(19.2864°N, 155.2806°W)
Time: 11:09:29
(UTC+00:00)

Daily predictions for brighter satellites

Satellite Brightness Start Highest point End
(mag) Time Altitude Azimuth Time Altitude Azimuth Time Altitude Azimuth
CZ-2D R/B 4.4 12:05:05 10° NNE 12:06:39 19° NE 12:06:39 19° NE
Atlas Centaur 2 4.2 12:18:12 31° ESE 12:18:12 31° ESE 12:23:01 10° E
ATLAS 3B CENTAUR R/B 4.2 12:11:14 10° WNW 12:31:54 56° N 12:39:00 10° ENE
ARIANE 5 R/B 4.3 12:57:22 10° N 12:59:26 24° N 12:59:26 24° N
SL-16 R/B 2.8 13:16:01 54° NW 13:16:01 54° NW 13:20:47 10° NNW
ATLAS 5 CENTAUR R/B 3.4 13:17:51 25° NNW 13:17:51 25° NNW 13:20:14 10° N
Resurs 1-4 Rocket 3.8 13:16:04 10° NNW 13:18:19 21° NW 13:18:19 21° NW
Cosmos 1867 4.3 13:21:52 43° NNW 13:21:52 43° NNW 13:25:57 10° NNE
ADEOS II 3.6 13:18:30 10° NE 13:23:07 31° E 13:25:05 24° SE
Cosmos 1862 Rocket 4.3 13:25:39 10° N 13:29:06 50° NE 13:29:06 50° NE
Cosmos 332 Rocket 4.0 13:26:08 10° N 13:30:24 66° NNE 13:30:24 66° NNE
Cosmos 1315 Rocket 3.6 13:36:21 50° NE 13:36:21 50° NE 13:39:28 10° NNE
GPS 2-04 Rocket1 4.0 13:37:10 36° ESE 13:37:10 36° ESE 13:39:47 10° ESE
SL-16 R/B 4.0 13:32:22 10° NW 13:33:56 18° NW 13:33:56 18° NW
CZ-4B R/B 4.0 13:35:43 10° NNE 13:39:34 37° E 13:40:07 36° ESE
Cosmos 1892 3.9 13:42:39 37° N 13:42:39 37° N 13:45:01 10° N
CZ-4B R/B 4.4 13:38:03 10° NNE 13:43:01 38° E 13:46:39 17° SSE
Skynet4D Del rocket 4.3 13:40:42 48° W 13:43:08 79° NNW 13:50:12 10° ENE
CZ-2D R/B 4.2 13:47:04 10° NW 13:47:58 12° NW 13:47:58 12° NW
MOS 1 Rocket 4.4 13:49:01 10° NNW 13:53:29 34° WNW 13:53:29 34° WNW
Cosmos 2263 Rocket 2.6 13:53:45 41° WNW 13:53:53 41° WNW 13:59:06 10° N
Meteor 2-10 Rocket 3.3 13:50:12 10° N 13:55:15 82° W 13:57:13 39° S
MOZ.5/SAFIR/RUBIN 5/SL-8 3.8 13:56:02 58° W 13:56:02 58° W 14:00:35 10° NNW
Cosmos 1763 Rocket 3.3 13:51:08 10° NNW 13:56:17 78° WSW 13:58:36 33° S
MOS 1-B 4.4 13:51:02 10° N 13:56:40 58° WNW 13:57:59 47° WSW
Meteor 2-3 Rocket 3.8 13:59:10 48° WSW 14:00:14 55° W 14:05:50 10° N
Cosmos 1408 4.1 14:01:09 19° SSE 14:03:12 35° E 14:06:32 10° NNE
OAO 3 Copernicus 4.1 14:01:48 37° WNW 14:03:46 75° SSW 14:08:49 10° SE
CZ-4B DEB 4.4 13:59:19 10° NNE 14:04:45 70° ESE 14:08:34 20° S
Atlas Centaur 2 3.1 14:00:49 34° WSW 14:04:57 77° NNW 14:13:33 10° ENE
Cosmos 1814 Rocket 4.4 14:01:37 10° NNW 14:06:38 42° W 14:06:45 42° WSW
Sakura Rocket 4.3 14:04:54 34° SSW 14:06:54 48° SSE 14:13:59 10° ENE
Cosmos 1869 Rocket 3.5 14:09:05 49° SW 14:10:01 63° W 14:14:27 10° N
Okean O Rocket 1.5 14:09:30 10° N 14:13:48 71° WNW 14:15:21 38° SSW
Cosmos 1825 2.9 14:12:23 19° SSE 14:14:50 52° E 14:18:32 10° NNE
Nadezhda 4 Rocket 3.9 14:09:50 16° S 14:14:54 89° W 14:21:12 10° N
GP-B 3.3 14:12:19 10° N 14:16:35 48° W 14:17:35 40° SW
Cosmos 1818 4.4 14:11:53 10° NNW 14:17:09 51° ENE 14:22:23 10° SE
Meteor 1-31 Rocket 4.5 14:16:41 10° NE 14:20:11 31° E 14:23:38 10° SSE
NOSS 3-4 (A) 4.2 14:15:27 10° NW 14:22:23 44° WSW 14:29:38 10° S
SWIFT 2.5 14:21:14 40° SW 14:22:26 57° SSE 14:26:35 10° E
NOSS 3-4 (C) 4.2 14:15:32 10° NW 14:22:30 45° WSW 14:29:46 10° S
USA 215 3.5 14:17:18 10° NE 14:23:47 65° SE 14:29:00 16° SSW
Cosmos 836 Rocket 4.5 14:24:10 10° NNW 14:29:26 90° WSW 14:34:42 10° SSE
Cosmos 1777 Rocket 4.4 14:26:09 10° S 14:31:21 64° ESE 14:36:34 10° NNE
CZ-3 R/B 3.6 13:54:07 10° WNW 14:31:27 70° N 14:39:11 10° E
Okean 1-7 3.1 14:27:39 10° N 14:31:54 77° E 14:36:10 10° S
PSLV R/B 3.8 14:28:39 10° N 14:32:40 46° WNW 14:34:44 25° SW
Cosmos 2180 Rocket 4.4 14:27:16 10° NNW 14:33:24 66° W 14:39:35 10° S
Cosmos 489 Rocket 4.4 14:28:45 14° SSW 14:34:15 79° WNW 14:40:35 10° N
PAYLOAD B 4.4 14:29:13 10° N 14:34:29 50° WNW 14:38:26 18° SW
Cosmos 371 Rocket 4.4 14:30:55 10° NW 14:34:38 23° W 14:34:42 23° W
Cosmos 540 Rocket 3.5 14:30:14 10° NNW 14:35:24 82° ENE 14:40:32 10° SSE
Cosmos 1782 3.6 14:33:07 10° N 14:37:02 54° E 14:40:59 10° SSE
Cosmos 2279 Rocket 4.2 14:31:10 10° NNW 14:37:04 47° W 14:43:00 10° SSW
Cosmos 2285 Rocket 4.1 14:31:17 10° NNW 14:37:21 52° W 14:43:27 10° S
NOSS 3 (A) 4.3 14:36:35 31° SSW 14:37:46 82° WNW 14:40:30 10° NNE
Meteor 2-20 4.5 14:33:57 10° S 14:40:02 88° E 14:46:10 10° N
Cosmos 1844 Rocket 2.7 14:35:05 11° SSW 14:40:32 85° ESE 14:46:06 10° NNE
CZ-4C R/B 3.1 14:36:40 10° S 14:41:16 40° ESE 14:46:09 10° NE
IUS-18 SRM-1 3.3 14:41:23 18° SSW 14:41:23 18° SSW 14:43:59 10° SSE
GPS 2-17 Rocket1 3.6 14:39:52 23° WSW 14:41:51 35° SSW 14:45:50 10° SE
Cosmos 968 Rocket 4.4 14:47:57 17° WSW 14:50:55 29° WNW 14:55:23 10° NNW
Intelsat 5-2 Rocket 4.1 14:48:32 15° W 14:51:48 54° SSW 15:02:41 10° ESE
Okean-O 2.9 14:48:14 10° NNE 14:52:39 71° ESE 14:57:02 10° S
Meteor 2-6 Rocket 4.2 14:52:24 10° N 14:57:47 83° E 15:03:15 10° S
RESURS DK-1 2.3 14:54:48 10° NNW 14:58:55 66° WSW 15:03:02 10° S
Meteor PRIRODA 4.1 14:56:01 10° N 14:59:27 40° WNW 15:02:53 10° SSW
Cosmos 1733 Rocket 3.1 14:56:03 10° SSW 15:00:26 64° W 15:04:51 10° N
Cosmos 1092 Rocket 4.3 14:55:01 10° SSW 15:01:03 49° W 15:07:09 10° N
ERS-2 3.6 14:57:36 10° NNE 15:01:05 39° E 15:04:33 10° S
Cosmos 304 Rocket 4.1 14:57:56 10° NNW 15:02:29 44° W 15:07:01 10° S
ADEOS II 3.5 14:58:52 10° NNW 15:02:31 19° WNW 15:06:02 10° WSW
Cosmos 2195 Rocket 4.4 14:57:06 10° S 15:03:11 76° W 15:09:17 10° N
Cosmos 2221 Rocket 4.4 15:03:03 10° NNW 15:07:01 31° W 15:10:58 10° SSW
SJ-6F 4.4 15:04:34 10° N 15:08:42 71° WNW 15:12:49 10° SSW
GPS 2-04 Rocket1 4.4 15:12:30 10° W 15:15:14 17° SW 15:18:02 10° S
Cosmos 1908 Rocket 3.9 15:11:31 10° S 15:15:48 69° E 15:20:05 10° N
ATLAS 3B CENTAUR R/B 1.7 15:09:29 10° WNW 15:17:11 68° SSW 15:20:21 10° SE
BREEZE M DEB (TANK) 2.0 15:16:29 10° WSW 15:19:03 36° NW 15:21:02 10° NNE
